Regional Weather Roundup
Issued by NWS Newport/Morehead, NC

Current Version | Previous Version | Graphics & Text | Print | Product List | Glossary Off
Versions: 1 2 3 4 5 6 7 8 9 10 11 12 13 14 15 16 17 18 19 20 21 22 23 24 25 26 27 28 29 30 31 32 33 34 35 36 37 38 39 40 41 42 43 44 45 46 47 48 49 50

096
ASUS42 KMHX 241713
RWRMHX
WEATHER ROUNDUP FOR EASTERN NORTH CAROLINA
NATIONAL WEATHER SERVICE NEWPORT/MOREHEAD CITY NC
100 PM EDT TUE APR 24 2018

NOTE: "FAIR" INDICATES FEW OR NO CLOUDS BELOW 12,000 FEET
WITH NO SIGNIFICANT WEATHER AND/OR OBSTRUCTIONS TO VISIBILITY

NCZ015>017-031-032-045>047-102-103-241800-
NORTH COAST

CITY           SKY/WX    TMP DP  RH WIND       PRES   REMARKS
EDENTON        LGT RAIN  62  60  94 E14G22    30.05F
ELIZABETH CITY LGT RAIN  60  59  96 E20G32    30.09F FOG
KITTY HAWK     DRIZZLE   56  55  98 E9G21     30.09F
MANTEO         CLOUDY    58  56  95 SE15G26   30.10F

$$

NCZ045>047-081-094-103-104-241800-
CENTRAL COAST

CITY           SKY/WX    TMP DP  RH WIND       PRES   REMARKS
FRISCO         RAIN      63  62  97 SE28G45   30.06F FOG

$$

NCZ095-097-098-100-101-241800-
SOUTHERN COAST

CITY           SKY/WX    TMP DP  RH WIND       PRES   REMARKS
BEAUFORT       HVY RAIN  61  60  97 NE12      29.98F FOG
CEDAR ISLAND   NOT AVBL
JACKSONVILLE   CLOUDY    62  62 100 E8        29.94F
PINEY ISLAND   NOT AVBL
WILMINGTON     CLOUDY    63  60  90 E13G18    29.92F


$$

NCZ011>013-027>030-043-044-078>080-089-090>093-098-241800-
COASTAL PLAIN

CITY           SKY/WX    TMP DP  RH WIND       PRES   REMARKS
AHOSKIE        HVY RAIN  58  58 100 E6        30.07F
CLINTON        CLOUDY    66  64  94 E7        29.91F
ELIZABETHTOWN  CLOUDY    69  64  84 MISG      29.89F
GOLDSBORO      CLOUDY    63  61  92 E10       29.92F
GREENVILLE     LGT RAIN  61  59  94 E12G17    29.98F
HAVELOCK       LGT RAIN  63  62  97 SE13      29.98F
KENANSVILLE    CLOUDY    63  61  94 SE5       29.94F
KINSTON        PTSUNNY   63  61  94 E10       29.94F
NEW BERN       HVY RAIN  60  60 100 SE6       29.98F FOG
RICHLANDS      CLOUDY    62  60  93 E7        29.94F
ROCKY MOUNT    LGT RAIN  60  59  96 E9        29.94F FOG
WASHINGTON     RAIN      61  60  96 E3        30.01F
WHITEVILLE     CLOUDY    70  67  90 SE10      29.88F

$$

AMZ130-135-150-152-154-156-158-170-250-252-270-ANZ085-086-088-633-658-670-241800-
MARINE OBSERVATIONS

STATION/POSITION TIME  TEMP    WIND        PRES    WAVE   SWELL
                       AIR SEA DIR/SP/G            HT/PER HT/PER
                 (UTC) (F)     (DEG/KT/KT) (MB)    (FT/S) (FT/S)
CHESAPEAKE LIGHT NOT AVBL
64 E VA BEACH    1650   55 50  110/ 12/ 14 1021.8    8/ 8   7/ 8
DUCK             1648   56 54  100/ 22/ 25 1019.1
2 E DUCK         1700      52                N/A     7/ 8   2/11
OREGON INLET     1642   57 54  100/ 13/ 19 1018.9
13E OREGON INLT  1648      51                N/A    11/ 9  10/ 9
HATTERAS CG      1648   63 62  130/ 17/ 25 1017.2
DIAMOND BUOY     1700   67 71  130/ 29/ 39 1017.6
CAPE LOOKOUT     1600          120/ 27/ 32 1016.0
BEAUFORT LAB     1648   61 63   60/  9/ 11 1015.8
30 SE NEW RVR IN NOT AVBL
30 SE NEW RVR IN 1700      65                N/A    15/10   5/11
27 SE WRIGHTSVLE 1608   62 65  130/ 14/ 21 1015.3
5 SE WRIGHTSVLE  NOT AVBL
225 S CAPE HAT   1700   70 73  130/ 31/ 39 1015.8
41 SE CHARLESTON 1650      69  210/ 10/ 14 1012.2   10/11  10/11

$$




USA.gov is the U.S. government's official web portal to all federal, state and local government web resources and services.